STARLINK-35552 (66058 NORAD) Tracking and Keplerian Element Data

This shows tracking and keplerian element data for the satellite.

Feedback or suggestion? Click here.




ElementValue
Catalog66058
NameSTARLINK-35552
Epoch Orbit574
Epoch Day354.25003472
Epoch Year2025
RAAN251.8132
Inclination53.1601
Eccentricity0.0001763
Argument of Perigee116.9601
Mean Anonmoly212.6287
Mean Motion15.32926011
Decay Rate-0.0357551
L11 66058U 25235A 25354.25003472 -.03575510 00000+0 -12630+0 0 9992
L22 66058 53.1601 251.8132 0001763 116.9601 212.6287 15.32926011 5740



Live tracking and technical data element details for STARLINK-35552 (NORAD 66058). STARLINK-35552 can be tracked NOW for your location showing map with azimuth and elevation plus other details from your city location.







IsCatalogInMostPopularTable: catalog: 66058, numindb: 10
Update: records affected: 1



GetName: 66058 STARLINK-35552

Hit Count: updated at: Tue, 21 Apr 2026 19:54:57 GMT